Total_Precipitation_Accumulation
0.31 0.35 0.75 0.89 0.91 0.97 0.94 0.92 0.92 0.90 0.90 0.97 1.01 1.01 1.01 0.96 0.95 0.95 0.96 0.86 0.87 0.93 1.07 1.19 1.19 1.12 1.02 0.91 0.77 0.70 0.66 0.66 0.65 0.67 0.75 0.83 0.85 0.79 0.74 0.71 0.74 0.83 1.09
0.27 0.32 0.62 0.77 0.89 0.93 0.90 0.91 0.86 0.78 0.84 0.93 0.95 0.95 0.99 1.01 1.00 1.03 1.02 0.95 0.97 1.06 1.12 1.21 1.14 1.05 0.94 0.90 0.81 0.67 0.62 0.58 0.51 0.47 0.47 0.53 0.68 0.72 0.71 0.69 0.71 0.88 0.98
0.23 0.28 0.50 0.70 0.86 0.94 0.95 0.91 0.87 0.79 0.87 0.97 0.99 1.02 1.08 1.09 1.05 1.09 1.03 1.01 1.04 1.11 1.12 1.13 1.10 1.04 0.92 0.86 0.86 0.74 0.64 0.53 0.46 0.39 0.34 0.37 0.57 0.73 0.69 0.67 0.71 0.90 0.97
0.20 0.25 0.41 0.68 0.85 0.98 1.01 0.97 0.93 0.92 0.92 0.94 0.92 0.96 1.05 1.10 1.13 1.09 1.01 1.03 1.08 1.14 1.14 1.10 1.04 1.02 0.99 0.87 0.81 0.73 0.72 0.60 0.44 0.34 0.28 0.34 0.55 0.82 0.80 0.79 0.78 0.85 0.93
0.22 0.27 0.45 0.73 0.89 0.97 1.02 0.97 0.93 0.96 0.94 0.94 0.91 0.97 1.11 1.14 1.15 1.06 0.98 0.96 1.01 1.13 1.20 1.15 0.99 0.94 0.95 0.87 0.78 0.75 0.76 0.65 0.46 0.31 0.26 0.32 0.50 0.88 0.85 0.83 0.82 0.84 0.87
0.28 0.33 0.50 0.74 0.90 0.98 1.01 0.99 0.97 0.96 0.96 0.98 0.99 1.03 1.13 1.13 1.15 1.09 1.00 0.93 0.93 0.98 1.06 1.06 0.98 0.93 0.89 0.80 0.70 0.75 0.83 0.72 0.41 0.30 0.31 0.35 0.47 0.86 0.96 0.93 0.88 0.87 0.89
0.32 0.41 0.56 0.85 0.98 1.05 1.10 1.05 1.00 0.99 1.01 1.04 1.10 1.12 1.15 1.13 1.12 1.08 1.03 0.96 0.91 0.88 0.93 0.99 0.98 0.95 0.91 0.80 0.72 0.77 0.85 0.68 0.36 0.36 0.38 0.39 0.51 0.96 1.25 1.17 0.99 0.90 0.88
0.36 0.50 0.64 0.96 1.10 1.18 1.17 1.15 1.12 1.10 1.14 1.18 1.19 1.22 1.22 1.14 1.07 1.02 1.03 0.94 0.88 0.81 0.80 0.85 0.88 0.87 0.86 0.81 0.77 0.75 0.74 0.51 0.33 0.33 0.36 0.38 0.57 1.08 1.35 1.31 1.14 1.00 0.91
0.47 0.60 0.75 0.96 1.13 1.27 1.27 1.24 1.26 1.24 1.23 1.29 1.31 1.27 1.22 1.14 1.10 1.07 1.02 0.94 0.89 0.84 0.78 0.76 0.78 0.76 0.73 0.71 0.73 0.69 0.57 0.40 0.31 0.37 0.34 0.38 0.57 1.10 1.37 1.39 1.27 1.11 0.97
0.64 0.79 0.89 1.02 1.13 1.24 1.30 1.30 1.29 1.28 1.27 1.31 1.34 1.26 1.17 1.14 1.13 1.08 0.97 0.92 0.93 0.94 0.87 0.80 0.76 0.73 0.66 0.61 0.59 0.53 0.41 0.33 0.26 0.35 0.43 0.43 0.53 1.02 1.33 1.35 1.28 1.22 1.06
0.77 0.94 1.06 1.14 1.21 1.29 1.34 1.32 1.47 1.50 1.49 1.48 1.40 1.34 1.30 1.25 1.18 1.03 0.88 0.87 0.95 0.98 0.91 0.84 0.81 0.74 0.69 0.58 0.51 0.44 0.37 0.26 0.26 0.36 0.44 0.48 0.69 1.16 1.46 1.43 1.38 1.31 1.16
0.79 0.92 1.08 1.19 1.26 1.38 1.45 1.52 1.65 1.70 1.69 1.61 1.38 1.31 1.32 1.22 1.15 1.01 0.94 0.91 0.95 0.96 0.92 0.87 0.86 0.85 0.80 0.62 0.57 0.51 0.39 0.28 0.27 0.27 0.33 0.42 0.71 1.23 1.54 1.54 1.54 1.45 1.31
0.76 0.90 1.04 1.21 1.39 1.49 1.52 1.63 1.68 1.71 1.69 1.66 1.53 1.38 1.32 1.33 1.27 1.19 1.09 1.08 1.09 1.03 1.02 0.99 0.99 0.91 0.82 0.73 0.67 0.57 0.42 0.35 0.31 0.25 0.25 0.34 0.55 0.95 1.36 1.54 1.59 1.62 1.61
0.80 0.90 1.05 1.26 1.43 1.51 1.54 1.62 1.66 1.60 1.52 1.48 1.43 1.46 1.45 1.41 1.31 1.23 1.17 1.15 1.18 1.12 1.07 1.03 0.97 0.89 0.80 0.73 0.70 0.64 0.56 0.51 0.40 0.32 0.25 0.28 0.38 0.58 0.94 1.29 1.55 1.70 1.80
0.87 0.95 1.13 1.34 1.46 1.59 1.64 1.69 1.67 1.57 1.46 1.45 1.41 1.42 1.39 1.28 1.20 1.10 1.06 1.08 1.01 0.96 0.94 0.93 0.92 0.88 0.80 0.77 0.73 0.65 0.60 0.59 0.51 0.42 0.35 0.34 0.35 0.44 0.65 0.97 1.33 1.64 1.86
0.93 1.04 1.23 1.42 1.58 1.72 1.68 1.70 1.66 1.60 1.58 1.64 1.57 1.38 1.35 1.28 1.20 1.14 1.06 1.03 0.98 0.89 0.85 0.85 0.82 0.84 0.81 0.74 0.70 0.61 0.56 0.55 0.53 0.48 0.45 0.46 0.40 0.41 0.53 0.78 1.07 1.39 1.77
1.02 1.15 1.31 1.44 1.68 1.84 1.81 1.77 1.73 1.71 1.68 1.65 1.68 1.63 1.47 1.35 1.29 1.25 1.16 1.05 1.02 0.99 0.97 0.95 0.91 0.88 0.83 0.76 0.71 0.64 0.57 0.53 0.53 0.53 0.54 0.53 0.50 0.48 0.54 0.71 0.88 1.13 1.57
1.16 1.30 1.41 1.56 1.74 1.88 1.91 1.90 1.82 1.77 1.81 1.74 1.73 1.79 1.78 1.58 1.41 1.33 1.26 1.15 1.13 1.15 1.14 1.09 1.01 0.97 0.89 0.79 0.73 0.68 0.62 0.55 0.49 0.49 0.53 0.53 0.51 0.51 0.55 0.61 0.77 1.00 1.33
1.21 1.36 1.47 1.60 1.79 1.96 2.04 2.03 2.00 1.89 1.87 1.88 1.84 1.81 1.86 1.90 1.69 1.49 1.37 1.33 1.34 1.34 1.28 1.19 1.10 1.00 0.94 0.86 0.78 0.72 0.65 0.59 0.53 0.51 0.50 0.52 0.54 0.53 0.54 0.57 0.62 0.77 1.03
1.18 1.38 1.55 1.68 1.84 2.03 2.20 2.23 2.21 2.12 1.95 1.91 1.91 1.80 1.75 1.84 1.87 1.74 1.57 1.49 1.50 1.51 1.44 1.32 1.20 1.12 1.04 1.02 0.98 0.87 0.74 0.65 0.60 0.56 0.51 0.53 0.54 0.53 0.53 0.58 0.63 0.63 0.73
1.20 1.35 1.50 1.61 1.77 1.99 2.14 2.21 2.18 2.12 1.97 1.90 1.84 1.79 1.78 1.82 1.87 1.86 1.67 1.59 1.49 1.45 1.42 1.36 1.30 1.28 1.21 1.20 1.31 1.21 1.02 0.86 0.76 0.68 0.62 0.60 0.60 0.61 0.67 0.72 0.77 0.74 0.71
1.07 1.22 1.45 1.62 1.70 1.88 2.03 2.05 2.14 2.11 2.03 1.93 1.86 1.82 1.76 1.77 1.87 1.97 1.88 1.76 1.68 1.58 1.55 1.55 1.50 1.44 1.37 1.28 1.38 1.48 1.35 1.21 0.98 0.77 0.70 0.65 0.67 0.72 0.81 0.85 0.89 0.89 0.85
0.95 1.08 1.28 1.56 1.74 1.82 2.02 2.29 2.48 2.53 2.35 2.19 2.01 1.86 1.75 1.72 1.76 1.89 1.98 1.94 1.89 1.84 1.72 1.59 1.58 1.55 1.54 1.42 1.33 1.61 1.63 1.28 0.96 0.78 0.67 0.61 0.61 0.64 0.65 0.70 0.76 0.81 0.89
0.88 1.06 1.23 1.35 1.62 1.86 2.01 2.26 2.49 2.59 2.41 2.06 1.93 1.88 1.82 1.76 1.75 1.78 1.85 1.89 1.87 1.84 1.76 1.64 1.55 1.50 1.57 1.61 1.45 1.30 1.26 1.20 1.20 0.99 0.74 0.62 0.60 0.61 0.58 0.58 0.59 0.65 0.76
0.86 1.04 1.21 1.31 1.49 1.78 1.99 2.11 2.39 2.55 2.43 2.25 2.12 1.99 1.86 1.82 1.79 1.74 1.75 1.81 1.86 1.83 1.79 1.72 1.66 1.66 1.67 1.65 1.57 1.40 1.22 1.07 1.06 1.15 0.96 0.76 0.70 0.67 0.63 0.60 0.60 0.59 0.61
0.83 0.97 1.17 1.33 1.40 1.64 1.89 2.06 2.22 2.45 2.56 2.45 2.31 2.20 2.03 1.95 1.88 1.81 1.70 1.73 1.82 1.85 1.84 1.83 1.80 1.78 1.81 1.73 1.61 1.51 1.50 1.48 1.28 1.20 1.07 0.83 0.78 0.74 0.72 0.70 0.68 0.66 0.63